| time (UTC) | temp C | wind direction | speed KPH | gust KPH | rain 1hr cm | rain 24hr cm | rain mn cm | humidity % | barometer mb |
| 20260503012238 | 11 | 78 | 8.0 | 22.5 | 0.00 | 0.00 | 0.00 | 84 | 1012.3 |
| 20260503011726 | 11 | 64 | 4.8 | 17.7 | 0.00 | 0.00 | 0.00 | 85 | 1012.4 |
| 20260503011212 | 11 | 86 | 1.6 | 17.7 | 0.00 | 0.00 | 0.00 | 85 | 1012.4 |
| 20260503010659 | 11 | 65 | 6.4 | 16.1 | 0.00 | 0.00 | 0.00 | 84 | 1012.5 |
| 20260503010149 | 11 | 352 | 11.3 | 22.5 | 0.00 | 0.00 | 0.00 | 84 | 1012.5 |
| 20260503005634 | 11 | 337 | 4.8 | 22.5 | 0.00 | 0.00 | 0.00 | 84 | 1012.5 |
| 20260503005120 | 11 | 350 | 6.4 | 22.5 | 0.00 | 0.00 | 0.00 | 85 | 1012.5 |
| 20260503004704 | 11 | 0 | 0.0 | 17.7 | 0.00 | 0.00 | 0.00 | 84 | 1012.5 |
| 20260503004607 | 11 | 0 | 0.0 | 17.7 | 0.00 | 0.00 | 0.00 | 84 | 1012.5 |
| 20260503004054 | 11 | 99 | 4.8 | 17.7 | 0.00 | 0.00 | 0.00 | 84 | 1012.4 |
| 20260503003541 | 11 | 306 | 6.4 | 19.3 | 0.00 | 0.00 | 0.00 | 85 | 1012.5 |
| 20260503003028 | 11 | 86 | 6.4 | 19.3 | 0.00 | 0.00 | 0.00 | 85 | 1012.4 |
| 20260503002517 | 11 | 324 | 6.4 | 19.3 | 0.00 | 0.00 | 0.00 | 85 | 1012.3 |
| 20260503002002 | 11 | 324 | 6.4 | 17.7 | 0.00 | 0.00 | 0.00 | 85 | 1012.5 |
| 20260503001449 | 11 | 336 | 3.2 | 17.7 | 0.00 | 0.00 | 0.00 | 85 | 1012.5 |
| 20260503000937 | 11 | 86 | 9.7 | 17.7 | 0.00 | 0.00 | 0.00 | 84 | 1012.5 |
| 20260503000423 | 11 | 14 | 4.8 | 17.7 | 0.00 | 0.00 | 0.00 | 85 | 1012.6 |
| 20260502235910 | 11 | 121 | 6.4 | 17.7 | 0.00 | 0.00 | 0.00 | 85 | 1012.6 |
| 20260502235357 | 11 | 319 | 4.8 | 17.7 | 0.00 | 0.00 | 0.00 | 85 | 1012.6 |
| 20260502234844 | 11 | 9 | 8.0 | 16.1 | 0.00 | 0.00 | 0.00 | 85 | 1012.8 |
| 20260502234332 | 11 | 39 | 8.0 | 16.1 | 0.00 | 0.00 | 0.00 | 85 | 1012.8 |
| 20260502233818 | 11 | 309 | 6.4 | 19.3 | 0.00 | 0.00 | 0.00 | 85 | 1012.8 |
| 20260502233305 | 11 | 282 | 8.0 | 19.3 | 0.00 | 0.00 | 0.00 | 85 | 1012.9 |
| 20260502232753 | 11 | 357 | 8.0 | 19.3 | 0.00 | 0.00 | 0.00 | 85 | 1012.9 |
| 20260502232239 | 11 | 29 | 6.4 | 16.1 | 0.00 | 0.00 | 0.00 | 85 | 1012.9 |
| 20260502231727 | 11 | 9 | 8.0 | 20.9 | 0.00 | 0.00 | 0.00 | 85 | 1013.0 |
| 20260502231213 | 11 | 287 | 9.7 | 20.9 | 0.00 | 0.00 | 0.00 | 85 | 1013.2 |
| 20260502230700 | 11 | 327 | 9.7 | 20.9 | 0.00 | 0.00 | 0.00 | 85 | 1013.2 |
| 20260502230147 | 11 | 26 | 9.7 | 20.9 | 0.00 | 0.00 | 0.00 | 85 | 1013.3 |
| 20260502225634 | 11 | 15 | 11.3 | 20.9 | 0.00 | 0.00 | 0.00 | 85 | 1013.3 |
| 20260502225122 | 11 | 312 | 9.7 | 20.9 | 0.00 | 0.00 | 0.00 | 85 | 1013.5 |
| 20260502224608 | 11 | 36 | 6.4 | 16.1 | 0.00 | 0.00 | 0.00 | 85 | 1013.6 |
| 20260502224055 | 11 | 355 | 8.0 | 19.3 | 0.00 | 0.00 | 0.00 | 85 | 1013.7 |
| 20260502223542 | 12 | 16 | 9.7 | 19.3 | 0.00 | 0.00 | 0.00 | 84 | 1013.7 |
| 20260502223029 | 12 | 334 | 8.0 | 19.3 | 0.00 | 0.00 | 0.00 | 85 | 1013.8 |
| 20260502222516 | 11 | 63 | 3.2 | 16.1 | 0.00 | 0.00 | 0.00 | 86 | 1013.9 |
| 20260502222005 | 11 | 309 | 4.8 | 16.1 | 0.00 | 0.00 | 0.00 | 86 | 1013.8 |
| 20260502221450 | 11 | 317 | 8.0 | 16.1 | 0.00 | 0.00 | 0.00 | 85 | 1013.9 |
| 20260502220937 | 12 | 26 | 6.4 | 16.1 | 0.00 | 0.00 | 0.00 | 85 | 1014.0 |
| 20260502220424 | 12 | 67 | 8.0 | 17.7 | 0.00 | 0.00 | 0.00 | 85 | 1014.0 |
| 20260502215911 | 11 | 352 | 9.7 | 17.7 | 0.00 | 0.00 | 0.00 | 85 | 1014.1 |
| 20260502215358 | 11 | 315 | 8.0 | 17.7 | 0.00 | 0.00 | 0.00 | 86 | 1014.0 |
| 20260502214845 | 11 | 310 | 9.7 | 16.1 | 0.00 | 0.00 | 0.00 | 85 | 1014.1 |
| 20260502214332 | 11 | 313 | 8.0 | 16.1 | 0.00 | 0.00 | 0.00 | 85 | 1014.1 |
| 20260502213819 | 11 | 334 | 8.0 | 8.0 | 0.00 | 0.00 | 0.00 | 86 | 1014.1 |
| 20260502213306 | 11 | 0 | 6.4 | 16.1 | 0.00 | 0.00 | 0.00 | 85 | 1014.2 |
| 20260502212753 | 11 | 320 | 4.8 | 16.1 | 0.00 | 0.00 | 0.00 | 85 | 1014.3 |
| 20260502211727 | 11 | 75 | 0.0 | 16.1 | 0.00 | 0.00 | 0.00 | 85 | 1014.4 |
| 20260502211214 | 11 | 1 | 1.6 | 16.1 | 0.00 | 0.00 | 0.00 | 85 | 1014.4 |
| 20260502210701 | 11 | 336 | 1.6 | 16.1 | 0.00 | 0.00 | 0.00 | 85 | 1014.4 |
| 20260502210148 | 11 | 4 | 4.8 | 16.1 | 0.00 | 0.00 | 0.00 | 85 | 1014.5 |
| 20260502205635 | 11 | 5 | 1.6 | 16.1 | 0.00 | 0.00 | 0.00 | 85 | 1014.6 |
| 20260502205122 | 11 | 22 | 6.4 | 16.1 | 0.00 | 0.00 | 0.00 | 85 | 1014.6 |
| 20260502204056 | 11 | 23 | 4.8 | 11.3 | 0.00 | 0.00 | 0.00 | 85 | 1014.7 |
| 20260502203543 | 11 | 344 | 4.8 | 17.7 | 0.00 | 0.00 | 0.00 | 84 | 1014.7 |
| 20260502203031 | 11 | 354 | 4.8 | 17.7 | 0.00 | 0.00 | 0.00 | 85 | 1014.8 |
| 20260502202517 | 11 | 323 | 8.0 | 17.7 | 0.00 | 0.00 | 0.00 | 84 | 1014.7 |
| 20260502202004 | 11 | 309 | 9.7 | 16.1 | 0.00 | 0.00 | 0.00 | 84 | 1014.8 |
| 20260502201451 | 11 | 324 | 4.8 | 9.7 | 0.00 | 0.00 | 0.00 | 85 | 1014.9 |
| 20260502200938 | 11 | 303 | 1.6 | 16.1 | 0.00 | 0.00 | 0.00 | 85 | 1014.9 |
| 20260502200425 | 11 | 291 | 6.4 | 16.1 | 0.00 | 0.00 | 0.00 | 85 | 1014.9 |
| 20260502195912 | 11 | 60 | 9.7 | 16.1 | 0.00 | 0.00 | 0.00 | 85 | 1015.1 |
| 20260502195359 | 11 | 30 | 8.0 | 16.1 | 0.00 | 0.00 | 0.00 | 85 | 1015.2 |
| 20260502194846 | 11 | 273 | 8.0 | 16.1 | 0.00 | 0.00 | 0.00 | 86 | 1015.2 |
| 20260502194333 | 11 | 0 | 8.0 | 11.3 | 0.00 | 0.00 | 0.00 | 85 | 1015.3 |
| 20260502193820 | 11 | 305 | 3.2 | 9.7 | 0.00 | 0.00 | 0.00 | 86 | 1015.4 |
| 20260502193307 | 11 | 0 | 3.2 | 17.7 | 0.00 | 0.00 | 0.00 | 86 | 1015.4 |
| 20260502191728 | 11 | 25 | 8.0 | 17.7 | 0.00 | 0.00 | 0.00 | 86 | 1015.5 |
| 20260502191215 | 11 | 337 | 8.0 | 17.7 | 0.00 | 0.00 | 0.00 | 86 | 1015.6 |
| 20260502190702 | 11 | 338 | 4.8 | 17.7 | 0.00 | 0.00 | 0.00 | 86 | 1015.6 |
| 20260502185636 | 11 | 287 | 0.0 | 17.7 | 0.00 | 0.00 | 0.00 | 86 | 1015.8 |
| 20260502185123 | 11 | 16 | 3.2 | 17.7 | 0.00 | 0.00 | 0.00 | 87 | 1015.9 |
| 20260502184610 | 11 | 16 | 8.0 | 17.7 | 0.00 | 0.00 | 0.00 | 87 | 1015.9 |
| 20260502184057 | 11 | 357 | 1.6 | 14.5 | 0.00 | 0.00 | 0.00 | 87 | 1016.0 |
| 20260502183544 | 11 | 302 | 0.0 | 14.5 | 0.00 | 0.00 | 0.00 | 88 | 1016.0 |
| 20260502183031 | 11 | 14 | 6.4 | 14.5 | 0.00 | 0.00 | 0.00 | 87 | 1016.1 |
| 20260502182518 | 11 | 302 | 6.4 | 14.5 | 0.00 | 0.00 | 0.00 | 87 | 1016.0 |
| 20260502182005 | 11 | 277 | 4.8 | 12.9 | 0.00 | 0.00 | 0.00 | 87 | 1016.1 |
| 20260502181452 | 11 | 336 | 8.0 | 12.9 | 0.00 | 0.00 | 0.00 | 87 | 1016.1 |
| 20260502180939 | 11 | 305 | 8.0 | 12.9 | 0.00 | 0.00 | 0.00 | 88 | 1016.1 |
| 20260502180426 | 10 | 70 | 1.6 | 12.9 | 0.00 | 0.00 | 0.00 | 88 | 1016.2 |
| 20260502170150 | 10 | 0 | 0.0 | 8.0 | 0.00 | 0.00 | 0.00 | 88 | 1016.5 |
| 20260502164058 | 10 | 303 | 1.6 | 12.9 | 0.00 | 0.00 | 0.00 | 88 | 1016.6 |
| 20260502163545 | 10 | 0 | 0.0 | 12.9 | 0.00 | 0.00 | 0.00 | 88 | 1016.6 |
| 20260502163032 | 10 | 47 | 0.0 | 11.3 | 0.00 | 0.00 | 0.00 | 88 | 1016.6 |
| 20260502162519 | 10 | 0 | 0.0 | 0.0 | 0.00 | 0.00 | 0.00 | 88 | 1016.7 |
| 20260502161453 | 10 | 0 | 0.0 | 0.0 | 0.00 | 0.00 | 0.00 | 88 | 1016.7 |
| 20260502160940 | 10 | 0 | 0.0 | 0.0 | 0.00 | 0.00 | 0.00 | 88 | 1016.6 |
| 20260502160427 | 10 | 0 | 0.0 | 16.1 | 0.00 | 0.00 | 0.00 | 88 | 1016.6 |
| 20260502152243 | 10 | 312 | 0.0 | 9.7 | 0.00 | 0.00 | 0.00 | 87 | 1016.8 |
| 20260502151729 | 10 | 60 | 0.0 | 8.0 | 0.00 | 0.00 | 0.00 | 87 | 1016.8 |
| 20260502151217 | 10 | 0 | 0.0 | 0.0 | 0.00 | 0.00 | 0.00 | 87 | 1016.8 |
| 20260502150704 | 10 | 0 | 0.0 | 0.0 | 0.00 | 0.00 | 0.00 | 87 | 1016.9 |
| 20260502150150 | 10 | 0 | 0.0 | 0.0 | 0.00 | 0.00 | 0.00 | 87 | 1016.9 |
| 20260502130704 | 10 | 0 | 0.0 | 0.0 | 0.00 | 0.00 | 0.00 | 87 | 1016.8 |
| 20260502130151 | 10 | 0 | 0.0 | 0.0 | 0.00 | 0.00 | 0.00 | 87 | 1016.9 |
| 20260502123546 | 10 | 47 | 1.6 | 8.0 | 0.00 | 0.00 | 0.00 | 87 | 1016.8 |
| 20260502123033 | 10 | 0 | 0.0 | 0.0 | 0.00 | 0.00 | 0.00 | 87 | 1016.9 |
| 20260502122520 | 10 | 50 | 0.0 | 16.1 | 0.00 | 0.00 | 0.00 | 87 | 1016.7 |
| 20260502121454 | 10 | 95 | 3.2 | 16.1 | 0.00 | 0.00 | 0.00 | 87 | 1016.6 |
| 20260502120941 | 10 | 53 | 0.0 | 11.3 | 0.00 | 0.00 | 0.00 | 87 | 1016.7 |
| 20260502120428 | 10 | 54 | 1.6 | 11.3 | 0.00 | 0.00 | 0.00 | 87 | 1016.9 |
| 20260502115915 | 10 | 86 | 4.8 | 11.3 | 0.00 | 0.00 | 0.00 | 87 | 1017.1 |
| 20260502115402 | 10 | 0 | 0.0 | 8.0 | 0.00 | 0.00 | 0.00 | 86 | 1017.1 |
| 20260502114849 | 10 | 0 | 0.0 | 8.0 | 0.00 | 0.00 | 0.00 | 86 | 1017.1 |
| 20260502114336 | 10 | 0 | 0.0 | 0.0 | 0.00 | 0.00 | 0.00 | 86 | 1017.1 |
| 20260502113310 | 10 | 35 | 0.0 | 12.9 | 0.00 | 0.00 | 0.00 | 86 | 1017.1 |
| 20260502112757 | 10 | 88 | 0.0 | 12.9 | 0.00 | 0.00 | 0.00 | 86 | 1017.1 |
| 20260502112244 | 10 | 49 | 1.6 | 12.9 | 0.00 | 0.00 | 0.00 | 86 | 1017.2 |
| 20260502111731 | 10 | 54 | 1.6 | 8.0 | 0.00 | 0.00 | 0.00 | 86 | 1017.2 |
| 20260502111218 | 10 | 0 | 0.0 | 8.0 | 0.00 | 0.00 | 0.00 | 86 | 1017.2 |
| 20260502110705 | 10 | 85 | 0.0 | 8.0 | 0.00 | 0.00 | 0.00 | 86 | 1017.2 |
| 20260502110152 | 10 | 0 | 0.0 | 12.9 | 0.00 | 0.00 | 0.00 | 86 | 1017.3 |
| 20260502105639 | 10 | 56 | 0.0 | 12.9 | 0.00 | 0.00 | 0.00 | 86 | 1017.2 |
| 20260502105126 | 10 | 0 | 0.0 | 12.9 | 0.00 | 0.00 | 0.00 | 86 | 1017.2 |
| 20260502104613 | 10 | 0 | 0.0 | 11.3 | 0.00 | 0.00 | 0.00 | 86 | 1017.2 |
| 20260502104101 | 10 | 39 | 0.0 | 11.3 | 0.00 | 0.00 | 0.00 | 86 | 1017.2 |
| 20260502103547 | 10 | 0 | 0.0 | 4.8 | 0.00 | 0.00 | 0.00 | 86 | 1017.3 |
| 20260502103034 | 10 | 0 | 0.0 | 8.0 | 0.00 | 0.00 | 0.00 | 86 | 1017.3 |
| 20260502102522 | 10 | 0 | 0.0 | 8.0 | 0.00 | 0.00 | 0.00 | 86 | 1017.4 |
| 20260502102009 | 10 | 68 | 1.6 | 8.0 | 0.00 | 0.00 | 0.00 | 86 | 1017.4 |
| 20260502101455 | 10 | 0 | 0.0 | 0.0 | 0.00 | 0.00 | 0.00 | 86 | 1017.3 |
| 20260502100942 | 10 | 0 | 0.0 | 14.5 | 0.00 | 0.00 | 0.00 | 86 | 1017.4 |
| 20260502100429 | 10 | 71 | 0.0 | 14.5 | 0.00 | 0.00 | 0.00 | 86 | 1017.4 |
| 20260502091220 | 10 | 91 | 0.0 | 14.5 | 0.00 | 0.00 | 0.00 | 86 | 1017.7 |
| 20260502090706 | 10 | 74 | 0.0 | 14.5 | 0.00 | 0.00 | 0.00 | 86 | 1017.8 |
| 20260502090153 | 10 | 102 | 0.0 | 12.9 | 0.00 | 0.00 | 0.00 | 86 | 1017.7 |
| 20260502071220 | 10 | 114 | 0.0 | 8.0 | 0.00 | 0.00 | 0.00 | 86 | 1018.4 |
| 20260502070707 | 10 | 26 | 0.0 | 4.8 | 0.00 | 0.00 | 0.00 | 86 | 1018.4 |
| 20260502070155 | 10 | 0 | 0.0 | 14.5 | 0.00 | 0.00 | 0.00 | 86 | 1018.3 |
| 20260502065641 | 10 | 338 | 0.0 | 14.5 | 0.00 | 0.00 | 0.00 | 86 | 1018.3 |
| 20260502065128 | 10 | 98 | 4.8 | 14.5 | 0.00 | 0.00 | 0.00 | 86 | 1018.3 |
| 20260502064615 | 10 | 61 | 0.0 | 11.3 | 0.00 | 0.00 | 0.00 | 86 | 1018.4 |
| 20260502064102 | 10 | 92 | 6.4 | 11.3 | 0.00 | 0.00 | 0.00 | 86 | 1018.4 |
| 20260502063550 | 10 | 61 | 1.6 | 9.7 | 0.00 | 0.00 | 0.00 | 86 | 1018.3 |
| 20260502063036 | 10 | 60 | 0.0 | 9.7 | 0.00 | 0.00 | 0.00 | 86 | 1018.4 |
| 20260502062523 | 10 | 0 | 0.0 | 19.3 | 0.00 | 0.00 | 0.00 | 86 | 1018.4 |
| 20260502062010 | 10 | 138 | 0.0 | 19.3 | 0.00 | 0.00 | 0.00 | 86 | 1018.5 |
| 20260502061457 | 10 | 0 | 0.0 | 19.3 | 0.00 | 0.00 | 0.00 | 86 | 1018.5 |
| 20260502060944 | 10 | 49 | 3.2 | 11.3 | 0.00 | 0.00 | 0.00 | 86 | 1018.6 |
| 20260502060431 | 10 | 0 | 0.0 | 9.7 | 0.00 | 0.00 | 0.00 | 86 | 1018.6 |
| 20260502055918 | 10 | 18 | 0.0 | 9.7 | 0.00 | 0.00 | 0.00 | 86 | 1018.7 |
| 20260502055405 | 10 | 0 | 0.0 | 0.0 | 0.00 | 0.00 | 0.00 | 86 | 1018.7 |
| 20260502054852 | 10 | 112 | 0.0 | 12.9 | 0.00 | 0.00 | 0.00 | 86 | 1018.7 |
| 20260502054339 | 10 | 0 | 3.2 | 12.9 | 0.00 | 0.00 | 0.00 | 86 | 1018.7 |
| 20260502053313 | 10 | 0 | 0.0 | 17.7 | 0.00 | 0.00 | 0.00 | 86 | 1018.7 |
| 20260502052800 | 10 | 36 | 3.2 | 17.7 | 0.00 | 0.00 | 0.00 | 86 | 1018.6 |
| 20260502052247 | 10 | 89 | 9.7 | 17.7 | 0.00 | 0.00 | 0.00 | 86 | 1018.7 |
| 20260502051734 | 10 | 95 | 0.0 | 12.9 | 0.00 | 0.00 | 0.00 | 86 | 1018.7 |
| 20260502051221 | 10 | 93 | 4.8 | 16.1 | 0.00 | 0.00 | 0.00 | 86 | 1018.7 |
| 20260502050708 | 10 | 357 | 0.0 | 16.1 | 0.00 | 0.00 | 0.00 | 86 | 1018.7 |
| 20260502050155 | 10 | 330 | 1.6 | 16.1 | 0.00 | 0.00 | 0.00 | 86 | 1018.8 |
| 20260502045642 | 10 | 0 | 0.0 | 12.9 | 0.00 | 0.00 | 0.00 | 86 | 1018.8 |
| 20260502045129 | 10 | 93 | 0.0 | 12.9 | 0.00 | 0.00 | 0.00 | 87 | 1018.7 |
| 20260502044103 | 10 | 85 | 1.6 | 14.5 | 0.00 | 0.00 | 0.00 | 87 | 1018.7 |
| 20260502043550 | 10 | 77 | 3.2 | 14.5 | 0.00 | 0.00 | 0.00 | 87 | 1018.6 |
| 20260502043037 | 10 | 47 | 0.0 | 17.7 | 0.00 | 0.00 | 0.00 | 87 | 1018.7 |
| 20260502042524 | 10 | 124 | 0.0 | 17.7 | 0.00 | 0.00 | 0.00 | 87 | 1018.6 |
| 20260502041458 | 10 | 309 | 4.8 | 12.9 | 0.00 | 0.00 | 0.00 | 87 | 1018.4 |
| 20260502040945 | 10 | 0 | 0.0 | 12.9 | 0.00 | 0.00 | 0.00 | 87 | 1018.3 |
| 20260502040432 | 10 | 0 | 0.0 | 12.9 | 0.00 | 0.00 | 0.00 | 87 | 1018.3 |
| 20260502035919 | 10 | 0 | 0.0 | 12.9 | 0.00 | 0.00 | 0.00 | 87 | 1018.3 |
| 20260502035406 | 10 | 0 | 0.0 | 12.9 | 0.00 | 0.00 | 0.00 | 87 | 1018.3 |
| 20260502034853 | 10 | 0 | 1.6 | 8.0 | 0.00 | 0.00 | 0.00 | 87 | 1018.3 |
| 20260502034340 | 10 | 0 | 0.0 | 8.0 | 0.00 | 0.00 | 0.00 | 87 | 1018.3 |
| 20260502033827 | 10 | 67 | 3.2 | 11.3 | 0.00 | 0.00 | 0.00 | 87 | 1018.3 |
| 20260502033314 | 10 | 0 | 0.0 | 11.3 | 0.00 | 0.00 | 0.00 | 87 | 1018.3 |
| 20260502032801 | 10 | 49 | 0.0 | 11.3 | 0.00 | 0.00 | 0.00 | 87 | 1018.3 |
| 20260502032248 | 10 | 93 | 3.2 | 17.7 | 0.00 | 0.00 | 0.00 | 87 | 1018.3 |
| 20260502031735 | 10 | 75 | 8.0 | 17.7 | 0.00 | 0.00 | 0.00 | 87 | 1018.2 |
| 20260502031222 | 10 | 30 | 0.0 | 17.7 | 0.00 | 0.00 | 0.00 | 87 | 1018.2 |
| 20260502030709 | 10 | 98 | 0.0 | 12.9 | 0.00 | 0.00 | 0.00 | 87 | 1018.2 |
| 20260502030156 | 10 | 89 | 1.6 | 11.3 | 0.00 | 0.00 | 0.00 | 87 | 1018.2 |
| 20260502025645 | 10 | 0 | 0.0 | 11.3 | 0.00 | 0.00 | 0.00 | 87 | 1018.1 |
| 20260502025130 | 10 | 35 | 4.8 | 11.3 | 0.00 | 0.00 | 0.00 | 87 | 1018.1 |
| 20260502024617 | 10 | 357 | 0.0 | 9.7 | 0.00 | 0.00 | 0.00 | 87 | 1018.1 |
| 20260502024105 | 10 | 312 | 0.0 | 11.3 | 0.00 | 0.00 | 0.00 | 87 | 1018.1 |
| 20260502023551 | 10 | 135 | 1.6 | 11.3 | 0.00 | 0.00 | 0.00 | 87 | 1018.0 |
| 20260502023037 | 10 | 305 | 1.6 | 11.3 | 0.00 | 0.00 | 0.00 | 87 | 1018.0 |
| 20260502022525 | 10 | 49 | 1.6 | 11.3 | 0.00 | 0.00 | 0.00 | 87 | 1018.0 |
| 20260502022014 | 10 | 0 | 0.0 | 8.0 | 0.00 | 0.00 | 0.00 | 87 | 1018.0 |
| 20260502021459 | 10 | 106 | 0.0 | 11.3 | 0.00 | 0.00 | 0.00 | 87 | 1017.9 |
| 20260502020945 | 10 | 0 | 0.0 | 11.3 | 0.00 | 0.00 | 0.00 | 87 | 1017.9 |
| 20260502020432 | 10 | 357 | 0.0 | 11.3 | 0.00 | 0.00 | 0.00 | 87 | 1017.9 |
| 20260502015919 | 10 | 0 | 0.0 | 0.0 | 0.00 | 0.00 | 0.00 | 87 | 1017.9 |
| 20260502015406 | 11 | 0 | 0.0 | 14.5 | 0.00 | 0.00 | 0.00 | 87 | 1017.9 |
| 20260502014854 | 10 | 0 | 1.6 | 14.5 | 0.00 | 0.00 | 0.00 | 87 | 1017.9 |
| 20260502013830 | 11 | 0 | 0.0 | 8.0 | 0.00 | 0.00 | 0.00 | 87 | 1018.0 |
| 20260502013314 | 11 | 0 | 0.0 | 11.3 | 0.00 | 0.00 | 0.00 | 87 | 1017.9 |
| 20260502012801 | 11 | 84 | 0.0 | 11.3 | 0.00 | 0.00 | 0.00 | 87 | 1018.0 |